Location: Tel Aviv
(32.0670°N, 34.7670°E)
Time: 12:08:06
(UTC+02:00)

Altair - All Passes

Search period start: 05 December 2023 00:00
Search period end: 15 December 2023 00:00
Orbit: 1501 x 1682 km, 47.2° (Epoch: 04 December)

Date Brightness Start Highest point End Pass type
(mag) Time Alt. Az. Time Alt. Az. Time Alt. Az.
05 Dec - 05:03:03 10° S 05:10:30 24° SE 05:17:46 10° ENE visible
05 Dec - 07:04:34 10° SW 07:14:28 88° SE 07:24:00 10° NE daylight
05 Dec - 09:11:10 10° W 09:20:05 40° NNW 09:28:42 10° NE daylight
05 Dec - 11:18:56 10° NW 11:27:07 32° N 11:35:07 10° ENE daylight
05 Dec - 13:24:26 10° NW 13:33:33 58° NNE 13:42:32 10° ESE daylight
05 Dec - 15:29:27 10° WNW 15:38:04 47° SW 15:46:43 10° SSE daylight
06 Dec - 04:38:24 10° S 04:45:23 22° SE 04:52:11 10° E visible
06 Dec - 06:39:20 10° SW 06:49:15 82° SE 06:58:48 10° NE daylight
06 Dec - 08:45:42 10° W 08:54:44 42° NNW 09:03:29 10° NE daylight
06 Dec - 10:53:33 10° NW 11:01:45 32° N 11:09:44 10° ENE daylight
06 Dec - 12:59:13 10° NW 13:08:18 54° NNE 13:17:13 10° ESE daylight
06 Dec - 15:04:09 10° WNW 15:12:57 52° SW 15:21:44 10° SSE daylight
07 Dec - 04:13:51 10° SSE 04:20:15 19° SE 04:26:32 10° E visible
07 Dec - 06:14:08 10° SW 06:24:03 76° SE 06:33:36 10° NE daylight
07 Dec - 08:20:14 10° W 08:29:24 44° NNW 08:38:16 10° NE daylight
07 Dec - 10:28:10 10° WNW 10:36:22 31° N 10:44:21 10° ENE daylight
07 Dec - 12:34:00 10° NW 12:43:01 51° NNE 12:51:52 10° ESE daylight
07 Dec - 14:38:53 10° WNW 14:47:49 57° SW 14:56:43 10° SSE daylight
07 Dec - 16:49:37 10° WSW 16:51:08 10° WSW 16:52:39 10° SW daylight
08 Dec - 03:49:25 10° SSE 03:55:08 17° SE 04:00:45 10° E visible
08 Dec - 05:48:58 10° SW 05:58:51 70° SE 06:08:23 10° NE visible
08 Dec - 07:54:47 10° W 08:04:05 46° NNW 08:13:05 10° NE daylight
08 Dec - 10:02:45 10° WNW 10:10:58 31° N 10:18:59 10° ENE daylight
08 Dec - 12:08:46 10° NW 12:17:45 48° NNE 12:26:31 10° E daylight
08 Dec - 14:13:38 10° WNW 14:22:41 63° SW 14:31:40 10° SSE daylight
08 Dec - 16:22:37 10° W 16:26:03 13° WSW 16:29:31 10° SW daylight
09 Dec - 03:25:11 10° SSE 03:30:01 15° ESE 03:34:47 10° E visible
09 Dec - 05:23:49 10° SW 05:33:40 65° SE 05:43:09 10° ENE visible
09 Dec - 07:29:20 10° W 07:38:46 49° NNW 07:47:53 10° NE daylight
09 Dec - 09:37:18 10° WNW 09:45:34 31° N 09:53:37 10° ENE daylight
09 Dec - 11:43:32 10° NW 11:52:27 45° NNE 12:01:09 10° E daylight
09 Dec - 13:48:22 10° NW 13:57:32 69° SW 14:06:35 10° SE daylight
09 Dec - 15:56:26 10° W 16:00:59 15° WSW 16:05:33 10° SSW daylight
10 Dec - 03:01:15 10° SE 03:04:55 12° ESE 03:08:31 10° E visible
10 Dec - 04:58:42 10° SSW 05:08:28 60° SE 05:17:54 10° ENE visible
10 Dec - 07:03:54 10° WSW 07:13:27 52° NNW 07:22:41 10° NE daylight
10 Dec - 09:11:51 10° WNW 09:20:11 32° N 09:28:17 10° ENE daylight
10 Dec - 11:18:17 10° NW 11:27:08 43° NNE 11:35:46 10° E daylight
10 Dec - 13:23:08 10° NW 13:32:22 75° SW 13:41:29 10° SE daylight
10 Dec - 15:30:32 10° W 15:35:54 17° SW 15:41:18 10° SSW daylight
11 Dec - 02:38:15 10° SE 02:39:48 10° ESE 02:41:21 10° ESE visible
11 Dec - 04:33:37 10° SSW 04:43:18 54° SE 04:52:39 10° ENE visible
11 Dec - 06:38:29 10° WSW 06:48:09 55° NNW 06:57:30 10° NE daylight
11 Dec - 08:46:23 10° WNW 08:54:48 32° N 09:02:56 10° NE daylight
11 Dec - 10:53:01 10° NW 11:01:49 41° NNE 11:10:23 10° E daylight
11 Dec - 12:57:54 10° NW 13:07:12 81° SW 13:16:21 10° SE daylight
11 Dec - 15:04:48 10° W 15:10:50 20° SW 15:16:52 10° SSW daylight
12 Dec - 04:08:34 10° SSW 04:18:07 50° SE 04:27:22 10° ENE visible
12 Dec - 06:13:05 10° WSW 06:22:52 59° NNW 06:32:18 10° NE daylight
12 Dec - 08:20:55 10° WNW 08:29:24 33° N 08:37:38 10° NE daylight
12 Dec - 10:27:44 10° NW 10:36:30 39° NNE 10:45:00 10° E daylight
12 Dec - 12:32:40 10° NW 12:42:02 87° SW 12:51:12 10° SE daylight
12 Dec - 14:39:10 10° W 14:45:45 22° SW 14:52:19 10° S daylight
13 Dec - 03:43:34 10° SSW 03:52:57 45° SE 04:02:03 10° ENE visible
13 Dec - 05:47:42 10° WSW 05:57:34 63° NNW 06:07:07 10° NE visible
13 Dec - 07:55:26 10° WNW 08:04:01 33° N 08:12:19 10° NE daylight
13 Dec - 10:02:26 10° NW 10:11:09 38° NNE 10:19:35 10° E daylight
13 Dec - 12:07:26 10° NW 12:16:50 87° NE 12:26:02 10° SE daylight
13 Dec - 14:13:37 10° WNW 14:20:40 25° SW 14:27:42 10° S daylight
14 Dec - 03:18:35 10° SSW 03:27:47 41° SE 03:36:44 10° ENE visible
14 Dec - 05:22:20 10° WSW 05:32:17 67° NW 05:41:56 10° NE visible
14 Dec - 07:29:56 10° WNW 07:38:37 34° N 07:47:01 10° NE daylight
14 Dec - 09:37:09 10° NW 09:45:48 37° NNE 09:54:11 10° E daylight
14 Dec - 11:42:12 10° NW 11:51:39 81° NE 12:00:50 10° SE daylight
14 Dec - 13:48:07 10° WNW 13:55:34 28° SW 14:02:59 10° S daylight
